Skip Page Navigation
NASA JPL Caltech
NASA Logo - Jet Propulsion Laboratory + View the NASA Portal
+ Center for Near-Earth Object Studies
JPL Home Earth Solar System Stars & Galaxies Technology
JPL Solar System Dynamics
BODIES ORBITS EPHEMERIDES TOOLS PHYSICAL DATA DISCOVERY FAQ SITE MAP
IMPORTANT: The SSD Announcement email list is now available. Major changes are coming in the near future, including possible hostname and/or URL changes. To be notified of such changes, subscribe to this email list.

Please visit this page for more details.


JPL Small-Body Database Browser
Search: [ help ]  
58452 (1996 JG3)
Classification: Main-belt Asteroid          SPK-ID: 2058452
Ephemeris | Orbit Diagram | Orbital Elements | Mission Design | Physical Parameters | Discovery Circumstances | Close-Approach Data ]

[ hide orbit diagram ]

For accurate long-term ephemerides, please instead use our Horizons system.This orbit viewer was implemented using two-body methods, and hence should not be used for determining accurate long-term trajectories (over several years or decades) or planetary encounter circumstances.


[ revert to old Java-based viewer ]

Orbital Elements at Epoch 2459000.5 (2020-May-31.0) TDB
Reference: JPL 16 (heliocentric ecliptic J2000)
 Element Value Uncertainty (1-sigma)   Units 
e .07218576430290276 3.6792e-08  
a 2.384773658995236 1.0868e-08 au
q 2.212626949731235 8.6356e-08 au
i 3.146503171785894 4.3469e-06 deg
node 125.1820927806097 9.2941e-05 deg
peri 169.230629960823 0.00010051 deg
M 126.6009245313586 3.7252e-05 deg
tp 2458527.453806229739
(2019-Feb-12.95380623)
0.00013951 TDB
period 1345.145230081731
3.68
9.1952e-06
2.518e-08
d
yr
n .2676290945760009 1.8295e-09 deg/d
Q 2.556920368259237 1.1652e-08 au
  Orbit Determination Parameters
   # obs. used (total)      540  
   data-arc span      8662 days (23.72 yr)  
   first obs. used      1996-05-09  
   last obs. used      2020-01-26  
   planetary ephem.      DE431  
   SB-pert. ephem.      SB431-N16  
   condition code      0  
   norm. resid. RMS      .617  
   source      ORB  
   producer      Otto Matic  
   solution date      2020-Feb-23 12:30:05  

Additional Information
 Earth MOID = 1.19667 au 
 Jupiter MOID = 2.55281 au 
 T_jup = 3.530 
[ hide covariance matrix ]
Orbital Elements at Epoch 2457132.5 (2015-Apr-20.0) TDB
Reference: JPL 16 (heliocentric ecliptic J2000)
 Element Value Uncertainty (1-sigma)   Units 
e .07273196140950532 3.6834e-08  
q 2.211211558757246 8.6603e-08 au
tp 2457184.349948341626
(2015-Jun-10.84994834)
0.00013985 TDB
node 125.2251023058312 9.2991e-05 deg
peri 169.7294174619875 0.00010046 deg
i 3.146012089883378 4.3471e-06 deg
  Orbit Determination Parameters
   # obs. used (total)      540  
   data-arc span      8662 days (23.72 yr)  
   first obs. used      1996-05-09  
   last obs. used      2020-01-26  
   planetary ephem.      DE431  
   SB-pert. ephem.      SB431-N16  
   condition code      0  
   norm. resid. RMS      .617  
   source      ORB  
   producer      Otto Matic  
   solution date      2020-Feb-23 12:30:05  

Additional Information
 Jupiter MOID = 2.55281 au 
 T_jup = 3.530 
Orbit Covariance (6×6)
  e q tp node peri i
e 1.356760177732088E-15 -3.168811673542253E-15 1.485670039668437E-12 1.135814945031882E-14 3.620933111684425E-13 5.355850890116681E-17
q -3.168811673542253E-15 7.5000430552426E-15 -3.810131413390342E-12 -2.516752244482135E-14 -9.425227466270805E-13 3.504653032060129E-17
tp 1.485670039668437E-12 -3.810131413390342E-12 1.955934185478927E-8 -1.211709037125702E-11 5.347539425453302E-9 -3.010546371060018E-12
node 1.135814945031882E-14 -2.516752244482135E-14 -1.211709037125702E-11 8.647368204141807E-9 -8.63731655945631E-9 1.757014729541955E-10
peri 3.620933111684425E-13 -9.425227466270805E-13 5.347539425453302E-9 -8.63731655945631E-9 1.009290836288602E-8 -1.762737083958824E-10
i 5.355850890116681E-17 3.504653032060129E-17 -3.010546371060018E-12 1.757014729541955E-10 -1.762737083958824E-10 1.889738401669919E-11

Ephemeris | Orbit Diagram | Orbital Elements | Mission Design | Physical Parameters | Discovery Circumstances | Close-Approach Data ]

Physical Parameter Table
Parameter Symbol Value Units Sigma Reference Notes
absolute magnitude H 16.2   n/a MPO432138  

58452 (1996 JG3)          Discovered 1996-May-09 by Spacewatch at Kitt Peak
Reference: 20030614/Numbers.arcLast Updated: 2004-04-19

[ show close-approach data ]
Alternate Designations
 1996 JG3 = 1997 SU31 
Ephemeris | Orbit Diagram | Orbital Elements | Mission Design | Physical Parameters | Discovery Circumstances | Close-Approach Data ]
ABOUT SSD CREDITS/AWARDS PRIVACY/COPYRIGHT GLOSSARY LINKS
FirstGov 2020-Apr-01 08:32 UT
(server date/time)  
NASA Home Page
Site Manager:   Ryan S. Park
Webmaster  Alan B. Chamberlin